Weerstation Grootegast  Weerstation Grootegast


15 daagse weersverwachting Kuopio (FI)

  • Overzicht
  • Per uur
  • 15 dagen
  • Extra
  • Vergelijk
  • Kaarten
  • Dagkaart
  • Meer »
  • Info
  • Statistieken
  • Directe link
    Temp 6h Neerslag Wind  
 06:39     19:31    Daglengte: 12:52 Morgen
03:00
24.0 mm
4
09:00
16.0 mm
6
15:00
10°
3.1 mm
5
21:00
 
5
 06:41     19:27    Daglengte: 12:46 Dinsdag 17 Sep
03:00
6.2 mm
4
09:00
3.1 mm
3
15:00
10°
 
3
21:00
 
3
 06:44     19:24    Daglengte: 12:40 Woensdag 18 Sep
03:00
 
3
09:00
 
5
15:00
16.2 mm
4
21:00
32.4 mm
4
Locatie info
Region: Pohjois-Savo
Latitude: 62.8930°N
Longitude: 27.6822°E
90 masl
Postcode: 70110
Temp/Neerslag /Baro Onweer/Dauwpunt
    Temp Baro 1h Neerslag Dauwpunt Wind UV Bewolking  
 06:36     19:34    Daglengte: 12:58 Vandaag
23:00
Voelt als: 6.1°
983.1 hPa 9.4 mm
48%
7.7°
4
Windvlaag: 4.9 m/s
91%
 06:39     19:31    Daglengte: 12:52 Morgen
00:00
Voelt als: 5.9°
983.1 hPa 3.7 mm
82%
7.4°
3
Windvlaag: 4.6 m/s
91%
01:00
Voelt als: 5.5°
983.4 hPa 3.7 mm
82%
7.2°
4
Windvlaag: 4.9 m/s
91%
02:00
Voelt als: 4.9°
983.7 hPa 3.7 mm
82%
6.9°
4
Windvlaag: 6.1 m/s
91%
03:00
Voelt als: 4.7°
984.1 hPa 3.4 mm
82%
6.4°
4
Windvlaag: 6.5 m/s
89%
04:00
Voelt als: 4.4°
984.4 hPa 3.0 mm
82%
5.9°
4
Windvlaag: 7.2 m/s
90%
05:00
Voelt als: 4.5°
984.5 hPa 2.8 mm
82%
5.9°
4
Windvlaag: 6.3 m/s
90%
06:00
Voelt als: 4.4°
984.7 hPa 2.6 mm
82%
6.1°
5
Windvlaag: 6.3 m/s
90%
07:00
Voelt als: 4.2°
985.2 hPa 2.6 mm
82%
6.0°
5
Windvlaag: 6.5 m/s
87%
08:00
Voelt als: 4.0°
985.6 hPa 2.5 mm
82%
5.8°
5
Windvlaag: 7.3 m/s
89%
09:00
Voelt als: 3.9°
986.2 hPa 2.4 mm
78%
5.8°
6
Windvlaag: 7.9 m/s
90%
10:00
Voelt als: 3.6°
987.2 hPa 3.1 mm
67%
5.6°
6
Windvlaag: 8.3 m/s
85%
11:00
Voelt als: 3.9°
988.1 hPa
16%
5.4°
6
Windvlaag: 8.1 m/s
88%
12:00
Voelt als: 4.8°
988.8 hPa
14%
5.1°
5
Windvlaag: 7.4 m/s
88%
13:00
Voelt als: 6.0°
989.7 hPa
14%
4.8°
5
Windvlaag: 6.9 m/s
81%
14:00
Voelt als: 6.7°
990.3 hPa
14%
4.1°
5
Windvlaag: 7.1 m/s
80%
15:00
10°
Voelt als: 7.0°
990.8 hPa
14%
3.8°
5
Windvlaag: 7.1 m/s
82%
16:00
10°
Voelt als: 6.9°
991.3 hPa
14%
3.3°
6
Windvlaag: 7.1 m/s
74%
17:00
10°
Voelt als: 6.6°
991.8 hPa
14%
3.0°
6
Windvlaag: 7.2 m/s
71%
18:00
Voelt als: 6.1°
992.3 hPa
17%
3.3°
6
Windvlaag: 7.4 m/s
81%
19:00
Voelt als: 5.8°
992.6 hPa
65%
3.6°
6
Windvlaag: 7.1 m/s
80%
20:00
Voelt als: 5.1°
993.0 hPa
73%
4.2°
5
Windvlaag: 6.9 m/s
66%
21:00
Voelt als: 4.4°
993.3 hPa
77%
4.8°
5
Windvlaag: 7 m/s
81%
22:00
Voelt als: 4.0°
993.4 hPa
82%
5.2°
5
Windvlaag: 6.9 m/s
90%
23:00
Voelt als: 3.7°
993.6 hPa
82%
5.3°
5
Windvlaag: 6.5 m/s
89%
 06:41     19:27    Daglengte: 12:46 Dinsdag 17 Sep
00:00
Voelt als: 3.5°
993.8 hPa
82%
5.4°
5
Windvlaag: 6.3 m/s
84%
01:00
Voelt als: 3.5°
994.1 hPa 3.1 mm
82%
5.5°
5
Windvlaag: 5.9 m/s
83%
02:00
Voelt als: 3.6°
994.3 hPa 3.1 mm
82%
5.5°
5
Windvlaag: 5.2 m/s
88%
03:00
Voelt als: 3.7°
994.4 hPa
82%
5.5°
4
Windvlaag: 4.8 m/s
79%
04:00
Voelt als: 3.6°
994.3 hPa 3.1 mm
82%
5.5°
4
Windvlaag: 4.5 m/s
72%
05:00
Voelt als: 3.7°
994.4 hPa
82%
5.7°
4
Windvlaag: 4.3 m/s
74%
06:00
Voelt als: 3.8°
994.5 hPa
82%
5.8°
4
Windvlaag: 4.3 m/s
77%
07:00
Voelt als: 4.0°
994.4 hPa
82%
5.8°
3
Windvlaag: 4.2 m/s
86%
08:00
Voelt als: 4.2°
994.6 hPa
82%
5.8°
4
Windvlaag: 3.9 m/s
88%
09:00
Voelt als: 4.7°
994.9 hPa
82%
5.9°
3
Windvlaag: 4 m/s
84%
10:00
Voelt als: 5.2°
995.2 hPa
82%
5.9°
3
Windvlaag: 3.9 m/s
77%
11:00
Voelt als: 5.9°
995.5 hPa
82%
6.4°
3
Windvlaag: 3.5 m/s
72%
12:00
Voelt als: 7.1°
995.8 hPa
74%
6.6°
3
Windvlaag: 3.1 m/s
52%
13:00
Voelt als: 7.9°
996.1 hPa
33%
6.2°
3
Windvlaag: 3.1 m/s
68%
14:00
10°
Voelt als: 8.1°
996.4 hPa
75%
5.5°
3
Windvlaag: 3.2 m/s
68%
15:00
10°
Voelt als: 8.1°
996.7 hPa
82%
5.3°
3
Windvlaag: 3.7 m/s
71%
16:00
10°
Voelt als: 8.1°
996.9 hPa
82%
4.6°
4
Windvlaag: 4.2 m/s
84%
17:00
10°
Voelt als: 8.0°
997.1 hPa
80%
4.5°
4
Windvlaag: 4.5 m/s
72%
18:00
10°
Voelt als: 7.6°
997.3 hPa
100%
4.9°
4
Windvlaag: 4.9 m/s
85%
19:00
Voelt als: 7.0°
997.9 hPa
85%
5.5°
4
Windvlaag: 4.9 m/s
80%
20:00
Voelt als: 7.4°
998.3 hPa
71%
5.5°
2
Windvlaag: 4 m/s
45%
21:00
Voelt als: 6.4°
998.7 hPa
21%
6.0°
3
Windvlaag: 2.8 m/s
54%
22:00
Voelt als: 5.7°
998.9 hPa
22%
5.7°
4
Windvlaag: 3.8 m/s
69%
23:00
Voelt als: 5.1°
999.3 hPa
22%
5.4°
4
Windvlaag: 4.2 m/s
58%
 06:44     19:24    Daglengte: 12:40 Woensdag 18 Sep
00:00
Voelt als: 4.8°
999.5 hPa
23%
5.4°
4
Windvlaag: 3.9 m/s
64%
01:00
Voelt als: 4.4°
999.9 hPa
21%
5.2°
4
Windvlaag: 4.2 m/s
52%
02:00
Voelt als: 4.2°
1000.4 hPa
21%
5.2°
3
Windvlaag: 3.8 m/s
67%
03:00
Voelt als: 3.9°
1000.9 hPa
25%
4.9°
3
Windvlaag: 3.3 m/s
73%
04:00
Voelt als: 3.7°
1001.2 hPa
39%
4.6°
3
Windvlaag: 3.4 m/s
86%
05:00
Voelt als: 3.5°
1001.5 hPa
84%
4.4°
3
Windvlaag: 3.6 m/s
94%
06:00
Voelt als: 3.2°
1001.9 hPa
35%
4.3°
3
Windvlaag: 3.8 m/s
77%
07:00
Voelt als: 2.6°
1002.3 hPa
40%
4.2°
4
Windvlaag: 4.6 m/s
75%
08:00
Voelt als: 2.6°
1003.0 hPa
93%
4.0°
4
Windvlaag: 4.9 m/s
56%
09:00
Voelt als: 2.7°
1003.6 hPa
88%
3.2°
5
Windvlaag: 5.2 m/s
39%
10:00
Voelt als: 3.3°
1004.0 hPa
50%
2.8°
4
Windvlaag: -3.8 m/s
45%
11:00
Voelt als: 4.0°
1004.4 hPa
97%
2.2°
4
Windvlaag: -3.6 m/s
54%
12:00
Voelt als: 4.6°
1004.8 hPa
99%
1.5°
4
Windvlaag: -4.6 m/s
64%
13:00
Voelt als: 5.1°
1005.2 hPa 5.4 mm
100%
0.7°
4
Windvlaag: -4.9 m/s
63%
14:00
Voelt als: 5.6°
1005.6 hPa 5.4 mm
100%
-0.1°
4
Windvlaag: -5.1 m/s
60%
15:00
Voelt als: 6.0°
1005.9 hPa 5.4 mm
100%
-1.1°
4
Windvlaag: -2.6 m/s
82%
16:00
Voelt als: 6.0°
1006.0 hPa 5.5 mm
100%
-0.8°
4
Windvlaag: 7.3 m/s
78%
17:00
Voelt als: 5.8°
1006.3 hPa 5.5 mm
100%
-0.7°
4
Windvlaag: 7.5 m/s
76%
18:00
Voelt als: 5.6°
1006.6 hPa 5.4 mm
100%
-0.5°
4
Windvlaag: 7.7 m/s
68%
19:00
Voelt als: 5.1°
1007.0 hPa 5.3 mm
100%
-0.4°
4
Windvlaag: 7.8 m/s
72%
20:00
Voelt als: 4.8°
1007.4 hPa 5.4 mm
92%
-0.3°
4
Windvlaag: 8 m/s
60%
21:00
Voelt als: 4.6°
1007.8 hPa
87%
-0.1°
4
Windvlaag: 1.2 m/s
54%
22:00
Voelt als: 4.6°
1008.4 hPa   1.1°
3
Windvlaag: 0 m/s
46%
Temp/Neerslag /Baro Onweer/Dauwpunt
    Temp Baro Neerslag Dauwpunt Wind Bewolking  
 06:39     19:31    Daglengte: 12:52 Morgen
00:00
Voelt als: 5.9°
983.1 hPa 13.1 mm 7.4°
3
91%
03:00
Voelt als: 4.7°
984.1 hPa 10.9 mm 6.4°
4
89%
06:00
Voelt als: 4.4°
984.7 hPa 8.5 mm 6.1°
5
90%
09:00
Voelt als: 3.9°
986.2 hPa 7.5 mm 5.8°
6
90%
12:00
Voelt als: 4.8°
988.8 hPa 3.1 mm 5.1°
5
88%
15:00
10°
Voelt als: 7.0°
990.8 hPa   3.8°
5
82%
18:00
Voelt als: 6.1°
992.3 hPa   3.3°
6
81%
21:00
Voelt als: 4.4°
993.3 hPa   4.8°
5
81%
 06:41     19:27    Daglengte: 12:46 Dinsdag 17 Sep
00:00
Voelt als: 3.5°
993.8 hPa   5.4°
5
84%
03:00
Voelt als: 3.7°
994.4 hPa 6.2 mm 5.5°
4
79%
06:00
Voelt als: 3.8°
994.5 hPa 3.1 mm 5.8°
4
77%
09:00
Voelt als: 4.7°
994.9 hPa   5.9°
3
84%
12:00
Voelt als: 7.1°
995.8 hPa   6.6°
3
52%
15:00
10°
Voelt als: 8.1°
996.7 hPa   5.3°
3
71%
18:00
10°
Voelt als: 7.6°
997.3 hPa   4.9°
4
85%
21:00
Voelt als: 6.4°
998.7 hPa   6.0°
3
54%
 06:44     19:24    Daglengte: 12:40 Woensdag 18 Sep
00:00
Voelt als: 4.8°
999.5 hPa   5.4°
4
64%
03:00
Voelt als: 3.9°
1000.9 hPa   4.9°
3
73%
06:00
Voelt als: 3.2°
1001.9 hPa   4.3°
3
77%
09:00
Voelt als: 2.7°
1003.6 hPa   3.2°
5
39%
12:00
Voelt als: 4.6°
1004.8 hPa   1.5°
4
64%
15:00
Voelt als: 6.0°
1005.9 hPa 16.2 mm -1.1°
4
82%
18:00
Voelt als: 5.6°
1006.6 hPa 16.4 mm -0.5°
4
68%
21:00
Voelt als: 4.6°
1007.8 hPa 16.0 mm -0.1°
4
54%
 06:47     19:21    Daglengte: 12:34 Donderdag 19 Sep
00:00
Voelt als: 3.5°
1009.1 hPa 19.2 mm 1.4°
3
24%
03:00
Voelt als: 2.9°
1009.7 hPa 19.2 mm 1.8°
2
5%
06:00
Voelt als: 2.8°
1010.4 hPa 19.2 mm 0.6°
3
30%
09:00
Voelt als: 3.0°
1011.1 hPa 19.2 mm -0.8°
3
55%
12:00
Voelt als: 4.4°
1012.0 hPa 19.2 mm -2.0°
3
66%
15:00
Voelt als: 5.7°
1012.8 hPa 19.2 mm -3.8°
4
76%
18:00
Voelt als: 4.4°
1013.4 hPa 19.3 mm -1.6°
4
52%
21:00
Voelt als: 3.1°
1014.0 hPa 19.4 mm -0.2°
3
27%
 06:49     19:17    Daglengte: 12:28 Vrijdag 20 Sep
00:00
Voelt als: 1.8°
1014.5 hPa 19.4 mm 0.6°
3
29%
03:00
Voelt als: 0.3°
1015.0 hPa 19.4 mm 1.1°
3
31%
06:00
Voelt als: 1.0°
1014.9 hPa 19.4 mm 1.6°
3
45%
09:00
Voelt als: 1.9°
1014.9 hPa 19.4 mm 2.1°
3
59%
12:00
Voelt als: 3.8°
1015.3 hPa 19.4 mm 2.0°
3
53%
15:00
Voelt als: 5.6°
1015.5 hPa 19.4 mm 1.6°
3
47%
18:00
Voelt als: 3.7°
1016.4 hPa 19.4 mm 1.2°
3
32%
21:00
Voelt als: 1.9°
1017.3 hPa 19.4 mm 0.7°
4
17%
 06:52     19:14    Daglengte: 12:22 Zaterdag 21 Sep
00:00
Voelt als: 1.2°
1018.4 hPa 19.4 mm 1.0°
4
13%
03:00
Voelt als: 0.6°
1019.3 hPa 19.6 mm 1.0°
3
9%
06:00
Voelt als: 1.5°
1019.8 hPa 22.6 mm 1.2°
3
43%
09:00
Voelt als: 2.7°
1020.5 hPa 25.8 mm 1.1°
3
77%
12:00
Voelt als: 4.9°
1020.6 hPa 27.3 mm 0.1°
3
85%
15:00
Voelt als: 7.0°
1020.6 hPa 27.4 mm -1.9°
3
92%
18:00
Voelt als: 6.3°
1020.4 hPa 27.4 mm 0.3°
3
92%
21:00
Voelt als: 5.6°
1020.3 hPa 27.5 mm 2.1°
3
92%
 06:55     19:10    Daglengte: 12:15 Zondag 22 Sep
00:00
Voelt als: 4.6°
1019.7 hPa 27.5 mm 3.2°
4
92%
03:00
Voelt als: 3.8°
1019.1 hPa 27.5 mm 4.2°
5
92%
06:00
Voelt als: 4.4°
1017.5 hPa 27.5 mm 5.2°
5
92%
09:00
Voelt als: 5.3°
1015.8 hPa 27.5 mm 6.4°
5
92%
12:00
10°
1012.9 hPa 27.5 mm 8.1°
5
91%
15:00
12°
1010.0 hPa 27.5 mm 9.6°
6
91%
18:00
13°
1007.2 hPa 27.5 mm 9.5°
6
47%
21:00
13°
1004.5 hPa 55.0 mm 9.0°
6
3%
 06:57     19:07    Daglengte: 12:10 Maandag 23 Sep
03:00
12°
1003.1 hPa 55.0 mm 9.2°
5
90%
09:00
11°
1003.5 hPa 55.0 mm 9.1°
5
1%
15:00
14°
1003.5 hPa 55.1 mm 6.9°
6
67%
21:00
12°
1004.9 hPa 55.2 mm 6.1°
5
43%
 07:00     19:04    Daglengte: 12:04 Dinsdag 24 Sep
03:00
Voelt als: 6.9°
1006.8 hPa 55.2 mm 4.6°
5
81%
09:00
Voelt als: 6.4°
1008.6 hPa 55.2 mm 4.7°
4
32%
15:00
12°
1011.3 hPa 55.2 mm 3.5°
5
58%
21:00
Voelt als: 7.2°
1013.6 hPa 55.2 mm 4.4°
3
85%
 07:03     19:00    Daglengte: 11:57 Woensdag 25 Sep
03:00
Voelt als: 6.0°
1015.2 hPa 55.2 mm 4.9°
1
58%
09:00
Voelt als: 5.1°
1018.8 hPa 55.3 mm 3.9°
4
1%
15:00
13°
1017.8 hPa 55.3 mm 8.6°
3
1%
21:00
Voelt als: 7.1°
1013.5 hPa 0.9 mm 6.7°
2
75%
 07:05     18:57    Daglengte: 11:52 Donderdag 26 Sep
03:00
Voelt als: 6.5°
1013.0 hPa 0.5 mm 6.2°
1
70%
09:00
Voelt als: 7.6°
1012.3 hPa 1.8 mm 6.7°
1
73%
15:00
11°
1011.8 hPa 0.9 mm 7.5°
2
70%
21:00
Voelt als: 7.1°
1011.9 hPa 1.5 mm 6.5°
1
60%
 07:08     18:54    Daglengte: 11:46 Vrijdag 27 Sep
03:00
Voelt als: 6.1°
1011.7 hPa 1.4 mm 5.9°
1
59%
09:00
Voelt als: 6.5°
1011.3 hPa   6.0°
1
64%
15:00
10°
1010.7 hPa 0.8 mm 7.2°
2
67%
21:00
Voelt als: 7.2°
1009.8 hPa 1.5 mm 7.0°
2
74%
 07:11     18:50    Daglengte: 11:39 Zaterdag 28 Sep
03:00
Voelt als: 6.9°
1009.6 hPa 1.1 mm 6.7°
1
72%
09:00
Voelt als: 7.6°
1009.2 hPa 0.9 mm 6.8°
1
69%
15:00
10°
1009.7 hPa 0.7 mm 7.9°
1
75%
21:00
Voelt als: 8.0°
1011.0 hPa 0.4 mm 6.8°
1
74%
 07:14     18:47    Daglengte: 11:33 Zondag 29 Sep
03:00
Voelt als: 6.6°
1012.2 hPa 0.3 mm 5.9°
1
65%
09:00
1012.5 hPa 0.7 mm 5.4°
1
65%
15:00
10°
Voelt als: 9.7°
1013.1 hPa 0.7 mm 6.4°
1
65%
21:00
Voelt als: 6.8°
1013.4 hPa 0.7 mm 5.6°
1
65%
 07:16     18:43    Daglengte: 11:27 Maandag 30 Sep
03:00
Voelt als: 5.0°
1014.0 hPa 0.2 mm 4.9°
1
52%
09:00
Voelt als: 5.3°
1013.9 hPa 0.2 mm 4.9°
1
53%
15:00
10°
Voelt als: 9.4°
1013.5 hPa 0.3 mm 6.3°
1
66%
21:00
Voelt als: 6.6°
1013.0 hPa 0.8 mm 6.1°
1
63%
  CAPE Lifted Index Hail Supercell Tornado SRH 3km CL BTM PRES CL TOP PRES Swiss DWD icon SMHI TS
 06:36     19:34    Daglengte: 12:58 Vandaag
23:00 22 J/kg 3.0 K 0 % 0 % 0 % 0 m²/s² 0 0 3.33 61
 06:39     19:31    Daglengte: 12:52 Morgen
00:00 18 J/kg 3.4 K 0 % 0 % 0 % 0 m²/s² 0 0 3.76 61
01:00 17 J/kg 3.2 K 0 % 0 % 0 % 0 m²/s² 0 0 3.68 61
02:00 11 J/kg 3.8 K 0 % 0 % 0 % 0 m²/s² 0 0 4.28 61
03:00 16 J/kg 4.3 K 0 % 0 % 0 % 0 m²/s² 0 0 4.75 61
04:00 23 J/kg 4.4 K 0 % 0 % 0 % 0 m²/s² 0 0 5.06 61
05:00 17 J/kg 4.7 K 0 % 0 % 0 % 0 m²/s² 0 0 5.48 61
06:00 21 J/kg 4.9 K 0 % 0 % 0 % 0 m²/s² 0 0 5.65 61
07:00 11 J/kg 5.2 K 0 % 0 % 0 % 0 m²/s² 0 0 6.04 61
08:00 5 J/kg 5.6 K 0 % 0 % 0 % 0 m²/s² 0 0 6.62 61
09:00 4 J/kg 6.3 K 0 % 0 % 0 % 0 m²/s² 0 0 7.56 61
10:00 3 J/kg 7.0 K 0 % 0 % 0 % 0 m²/s² 0 0 8.59 3
11:00 1 J/kg 7.3 K 0 % 0 % 0 % 0 m²/s² 0 0 9.22 3
12:00 0 J/kg 7.6 K 0 % 0 % 0 % 0 m²/s² 0 0 10.51 3
13:00 0 J/kg 7.5 K 0 % 0 % 0 % 0 m²/s² 0 0 11.79 3
14:00 0 J/kg 7.6 K 0 % 0 % 0 % 0 m²/s² 0 0 12.88 3
15:00 1 J/kg 6.7 K 0 % 0 % 0 % 0 m²/s² 0 0 12.58 3
16:00 4 J/kg 6.5 K 0 % 0 % 0 % 0 m²/s² 0 0 12.77 3
17:00 16 J/kg 5.6 K 0 % 0 % 0 % 0 m²/s² 0 0 11.3 3
18:00 28 J/kg 5.2 K 0 % 0 % 0 % 0 m²/s² 0 0 9.25 3
19:00 23 J/kg 5.3 K 0 % 0 % 0 % 0 m²/s² 0 0 6.41 3
20:00 27 J/kg 5.1 K 0 % 0 % 0 % 0 m²/s² 0 0 5.85 3
21:00 26 J/kg 5.0 K 0 % 0 % 0 % 0 m²/s² 0 0 5.69 3
22:00 25 J/kg 5.1 K 0 % 0 % 0 % 0 m²/s² 0 0 5.64 61
23:00 28 J/kg 5.1 K 0 % 0 % 0 % 0 m²/s² 0 0 5.64 61
 06:41     19:27    Daglengte: 12:46 Dinsdag 17 Sep
00:00 30 J/kg 4.8 K 0 % 0 % 0 % 0 m²/s² 0 0 5.34 61
01:00 31 J/kg 4.5 K 0 % 0 % 0 % 0 m²/s² 0 0 4.98 61
02:00 46 J/kg 4.2 K 0 % 0 % 0 % 0 m²/s² 0 0 4.65 61
03:00 55 J/kg 4.0 K 0 % 0 % 0 % 0 m²/s² 0 0 4.96 61
04:00 42 J/kg 4.4 K 0 % 0 % 0 % 0 m²/s² 0 0 6.65 61
05:00 26 J/kg 4.6 K 0 % 0 % 0 % 0 m²/s² 0 0 7.27 61
06:00 45 J/kg 4.4 K 0 % 0 % 0 % 0 m²/s² 0 0 6.92 61
07:00 66 J/kg 4.4 K 0 % 0 % 0 % 0 m²/s² 0 0 6.44 61
08:00 84 J/kg 4.4 K 0 % 0 % 0 % 0 m²/s² 0 0 6.32 53
09:00 102 J/kg 4.4 K 0 % 0 % 0 % 0 m²/s² 0 0 6.44 61
10:00 107 J/kg 4.4 K 0 % 0 % 0 % 0 m²/s² 0 0 6.5 61
11:00 102 J/kg 4.6 K 0 % 0 % 0 % 0 m²/s² 0 0 7.33 61
12:00 75 J/kg 5.2 K 0 % 0 % 0 % 0 m²/s² 0 0 7.72 61
13:00 50 J/kg 5.8 K 0 % 0 % 0 % 0 m²/s² 0 0 8.23 3
14:00 43 J/kg 5.8 K 0 % 0 % 0 % 0 m²/s² 0 0 8.38 3
15:00 49 J/kg 5.4 K 0 % 0 % 0 % 0 m²/s² 0 0 7.98 3
16:00 49 J/kg 5.5 K 0 % 0 % 0 % 0 m²/s² 0 0 8.02 3
17:00 56 J/kg 5.3 K 0 % 0 % 0 % 0 m²/s² 0 0 7.94 3
18:00 66 J/kg 5.2 K 0 % 0 % 0 % 0 m²/s² 0 0 7.84 3
19:00 61 J/kg 5.5 K 0 % 0 % 0 % 0 m²/s² 0 0 8.38 3
20:00 55 J/kg 5.8 K 0 % 0 % 0 % 0 m²/s² 0 0 8.77 1
21:00 54 J/kg 5.9 K 0 % 0 % 0 % 0 m²/s² 0 0 9.29 2
22:00 49 J/kg 6.2 K 0 % 0 % 0 % 0 m²/s² 0 0 9.86 2
23:00 49 J/kg 6.5 K 0 % 0 % 0 % 0 m²/s² 0 0 10.16 1
 06:44     19:24    Daglengte: 12:40 Woensdag 18 Sep
00:00 36 J/kg 6.9 K 0 % 0 % 0 % 0 m²/s² 0 0 10.44 3
01:00 52 J/kg 6.9 K 0 % 0 % 0 % 0 m²/s² 0 0 10.65 3
02:00 62 J/kg 6.8 K 0 % 0 % 0 % 0 m²/s² 0 0 10.85 2
03:00 79 J/kg 6.7 K 0 % 0 % 0 % 0 m²/s² 0 0 10.72 2
04:00 87 J/kg 6.8 K 0 % 0 % 0 % 0 m²/s² 0 0 10.94 2
05:00 97 J/kg 6.8 K 0 % 0 % 0 % 0 m²/s² 0 0 11.24 3
06:00 91 J/kg 7.1 K 0 % 0 % 0 % 0 m²/s² 0 0 11.66 3
07:00 85 J/kg 7.3 K 0 % 0 % 0 % 0 m²/s² 0 0 11.98 3
08:00 57 J/kg 7.9 K 0 % 0 % 0 % 0 m²/s² 0 0 12.55 3
09:00 57 J/kg 8.3 K 0 % 0 % 0 % 0 m²/s² 0 0 13.07 3
10:00 49 J/kg 8.4 K 0 % 0 % 0 % 0 m²/s² 0 0 13.29 3
11:00 42 J/kg 8.6 K 0 % 0 % 0 % 0 m²/s² 0 0 13.49 3
12:00 24 J/kg 9.1 K 0 % 0 % 0 % 0 m²/s² 0 0 13.51 3
13:00 12 J/kg 9.3 K 0 % 0 % 0 % 0 m²/s² 0 0 12.78 3
14:00 14 J/kg 8.7 K 0 % 0 % 0 % 0 m²/s² 0 0 11.16 80
15:00 20 J/kg 7.8 K 0 % 0 % 0 % 0 m²/s² 0 0 9.03 80
16:00 16 J/kg 7.4 K 0 % 0 % 0 % 0 m²/s² 0 0 9.08 80
17:00 5 J/kg 7.3 K 0 % 0 % 0 % 0 m²/s² 0 0 9.22 80
18:00 4 J/kg 7.2 K 0 % 0 % 0 % 0 m²/s² 0 0 9.42 80
19:00 4 J/kg 7.2 K 0 % 0 % 0 % 0 m²/s² 0 0 9.48 3
20:00 3 J/kg 7.3 K 0 % 0 % 0 % 0 m²/s² 0 0 9.52 80
21:00 3 J/kg 7.3 K 0 % 0 % 0 % 0 m²/s² 0 0 9.7 3
22:00 0 J/kg 0.0 K 0 % 0 % 0 % 0 m²/s² 0 0 13.83
Temp Baro Wind Neerslag
  EWN Forecast EWN WRFDA DWD ICON FMI HIRLAM MET Norway GFS
 06:39     19:31    Daglengte: 12:52 Morgen
00:00 8.1° 983.1 hPa 3.4 m/s 13.1 mm 8.8° 981.1 hPa 6.3 m/s 26.5 mm 8.1° 984.0 hPa 2.7 m/s 10.9 mm 8.4° 982.7 hPa 4.3 m/s 0.0 mm 7.9° 983.1 hPa 3.2 m/s 6.8 mm 8.3° 982.8 hPa 6.2 m/s
03:00 7.5° 984.1 hPa 4.3 m/s 10.9 mm 8.8° 981.6 hPa 7.2 m/s 43.1 mm 7.9° 984.7 hPa 4.1 m/s 4.4 mm 6.9° 984.1 hPa 4.0 m/s 0.0 mm 7.0° 983.9 hPa 5.2 m/s 6.7 mm 8.0° 983.4 hPa 7.5 m/s
06:00 7.3° 984.7 hPa 4.6 m/s 8.5 mm 8.3° 982.8 hPa 7.5 m/s 44.0 mm 7.5° 985.9 hPa 3.8 m/s 1.9 mm 7.1° 984.7 hPa 4.3 m/s 0.0 mm 6.7° 984.3 hPa 5.2 m/s 2.7 mm 7.0° 985.1 hPa 7.7 m/s
09:00 7.3° 986.2 hPa 5.9 m/s 7.5 mm 8.1° 984.5 hPa 8.3 m/s 44.1 mm 7.6° 987.9 hPa 4.6 m/s 1.1 mm 7.6° 986.1 hPa 5.7 m/s 0.0 mm 6.9° 985.9 hPa 6.8 m/s 2.1 mm 6.7° 987.0 hPa 7.4 m/s
12:00 7.9° 988.8 hPa 5.2 m/s 3.1 mm 9.4° 986.4 hPa 7.3 m/s 44.1 mm 8.8° 990.0 hPa 4.0 m/s 0.0 mm 7.6° 988.7 hPa 5.0 m/s 0.0 mm 7.7° 988.7 hPa 6.4 m/s 0.5 mm 7.8° 989.4 hPa 6.2 m/s
15:00 9.6° 990.8 hPa 5.5 m/s 0.0 mm 10.7° 988.3 hPa 6.8 m/s 44.1 mm 9.6° 992.3 hPa 5.1 m/s 0.0 mm 10.3° 990.7 hPa 5.2 m/s 0.0 mm 9.5° 990.8 hPa 6.6 m/s 0.0 mm 10.0° 991.7 hPa 6.0 m/s
18:00 9.2° 992.3 hPa 6.2 m/s 0.0 mm 10.4° 989.4 hPa 7.4 m/s 44.1 mm 9.1° 993.5 hPa 4.5 m/s 0.0 mm 10.0° 992.1 hPa 5.4 m/s 0.0 mm 8.6° 992.4 hPa 7.0 m/s 0.0 mm 9.5° 993.2 hPa 5.6 m/s
21:00 7.6° 993.3 hPa 5.4 m/s 0.0 mm 8.5° 990.1 hPa 7.1 m/s 44.1 mm 7.9° 994.2 hPa 3.2 m/s 0.1 mm 7.7° 993.2 hPa 5.4 m/s 0.0 mm 7.1° 993.4 hPa 6.2 m/s 0.0 mm 8.2° 993.8 hPa 5.0 m/s
 06:41     19:27    Daglengte: 12:46 Dinsdag 17 Sep
00:00 6.8° 993.8 hPa 5.3 m/s 0.0 mm 8.1° 990.6 hPa 6.6 m/s 44.2 mm 7.3° 994.3 hPa 3.6 m/s 0.4 mm 6.5° 994.0 hPa 4.6 m/s 0.0 mm 6.4° 994.1 hPa 5.7 m/s 0.3 mm 7.2° 994.0 hPa 4.6 m/s
03:00 6.7° 994.4 hPa 4.4 m/s 6.2 mm 8.7° 991.1 hPa 5.1 m/s 44.5 mm 6.8° 994.8 hPa 3.5 m/s 0.7 mm 6.6° 994.7 hPa 4.3 m/s 0.0 mm 5.9° 994.6 hPa 4.5 m/s 0.3 mm 7.0° 994.4 hPa 4.1 m/s
06:00 6.5° 994.5 hPa 3.9 m/s 3.1 mm 7.5° 991.5 hPa 4.0 m/s 45.0 mm 6.5° 994.9 hPa 3.3 m/s 0.5 mm 6.8° 995.1 hPa 3.8 m/s 0.0 mm 6.0° 994.6 hPa 4.4 m/s 0.0 mm 6.4° 994.4 hPa 3.8 m/s
09:00 7.0° 994.9 hPa 3.3 m/s 0.0 mm 8.6° 992.1 hPa 5.0 m/s 45.4 mm 7.4° 995.3 hPa 2.6 m/s 0.4 mm 7.2° 995.2 hPa 3.3 m/s 0.0 mm 6.7° 994.8 hPa 3.5 m/s 0.0 mm 6.2° 995.0 hPa 3.8 m/s
12:00 8.7° 995.8 hPa 2.8 m/s 0.0 mm 9.9° 993.6 hPa 4.9 m/s 45.7 mm 8.6° 996.1 hPa 1.8 m/s 0.6 mm 9.0° 996.0 hPa 2.8 m/s 0.0 mm 8.1° 995.9 hPa 2.8 m/s 0.0 mm 7.1° 995.8 hPa 3.1 m/s
15:00 9.8° 996.7 hPa 3.4 m/s 0.0 mm 10.5° 994.5 hPa 5.2 m/s 45.9 mm 9.8° 997.6 hPa 2.5 m/s 0.2 mm 10.0° 997.0 hPa 3.5 m/s 0.0 mm 9.7° 996.6 hPa 3.2 m/s 0.0 mm 8.2° 996.2 hPa 4.4 m/s
18:00 9.5° 997.3 hPa 3.7 m/s 0.0 mm 10.3° 995.0 hPa 5.1 m/s 45.9 mm 9.6° 998.1 hPa 1.8 m/s 0.2 mm 8.7° 997.4 hPa 3.7 m/s 0.0 mm 8.3° 996.9 hPa 4.8 m/s
21:00 8.2° 998.7 hPa 2.9 m/s 0.0 mm 9.2° 996.1 hPa 5.2 m/s 45.9 mm 8.8° 999.0 hPa 2.0 m/s 0.0 mm 6.6° 998.8 hPa 2.7 m/s 0.0 mm 6.5° 998.8 hPa 4.6 m/s
 06:44     19:24    Daglengte: 12:40 Woensdag 18 Sep
00:00 7.2° 999.5 hPa 3.6 m/s 0.0 mm 7.7° 996.7 hPa 5.5 m/s 45.9 mm 8.0° 1000.6 hPa 1.5 m/s 0.0 mm 5.7° 999.5 hPa 3.7 m/s 0.0 mm 5.1° 999.8 hPa 3.9 m/s
03:00 6.3° 1000.9 hPa 3.3 m/s 0.0 mm 6.8° 998.2 hPa 4.8 m/s 45.9 mm 7.5° 1001.8 hPa 1.6 m/s 0.0 mm 4.9° 1000.8 hPa 3.2 m/s 0.0 mm 4.6° 1001.8 hPa 3.3 m/s
06:00 5.8° 1001.9 hPa 3.5 m/s 0.0 mm 6.9° 999.4 hPa 4.6 m/s 46.5 mm 7.2° 1003.0 hPa 1.7 m/s 0.0 mm 4.9° 1001.7 hPa 3.6 m/s 0.0 mm 4.1° 1002.7 hPa 4.1 m/s
09:00 5.9° 1003.6 hPa 4.5 m/s 0.0 mm 6.5° 1000.5 hPa 5.5 m/s 47.1 mm 7.3° 1004.5 hPa 1.6 m/s 0.0 mm 5.7° 1003.4 hPa 5.0 m/s 0.0 mm 4.5° 1004.2 hPa 4.2 m/s
12:00 7.3° 1004.8 hPa 4.3 m/s 0.0 mm 7.4° 1002.4 hPa 5.7 m/s 47.1 mm 8.5° 1005.6 hPa 1.3 m/s 0.1 mm 7.2° 1004.6 hPa 4.6 m/s 5.9° 1005.8 hPa 4.2 m/s
15:00 8.5° 1005.9 hPa 4.2 m/s 16.2 mm 8.2° 1003.4 hPa 5.5 m/s 47.1 mm 8.5° 1006.6 hPa 2.4 m/s 0.8 mm 8.6° 1005.8 hPa 4.2 m/s 7.2° 1006.8 hPa 4.7 m/s
18:00 8.0° 1006.6 hPa 3.9 m/s 16.4 mm 8.0° 1004.1 hPa 6.1 m/s 47.1 mm 7.8° 1007.6 hPa 3.4 m/s 1.1 mm 8.1° 1006.8 hPa 3.8 m/s 6.9° 1007.9 hPa 5.5 m/s
21:00 7.0° 1007.8 hPa 3.5 m/s 16.0 mm 6.4° 1005.9 hPa 6.3 m/s 47.1 mm 6.6° 1009.0 hPa 2.9 m/s 0.5 mm 7.5° 1007.8 hPa 3.3 m/s 5.0° 1009.7 hPa 5.6 m/s
 06:47     19:21    Daglengte: 12:34 Donderdag 19 Sep
00:00 5.7° 1009.1 hPa 2.7 m/s 19.2 mm 5.9° 1008.9 hPa 2.6 m/s 3.1° 1010.9 hPa 4.3 m/s 19.2 mm
03:00 4.9° 1009.7 hPa 2.4 m/s 19.2 mm 5.1° 1009.5 hPa 2.2 m/s 2.3° 1012.4 hPa 4.2 m/s 19.2 mm
06:00 5.0° 1010.4 hPa 2.6 m/s 19.2 mm 5.3° 1010.2 hPa 2.5 m/s 1.7° 1012.9 hPa 4.5 m/s 19.2 mm
09:00 5.3° 1011.1 hPa 2.9 m/s 19.2 mm 5.5° 1010.9 hPa 2.7 m/s 3.3° 1013.5 hPa 4.8 m/s 19.2 mm
12:00 6.8° 1012.0 hPa 3.3 m/s 19.2 mm 6.8° 1011.8 hPa 3.0 m/s 6.8° 1014.2 hPa 5.7 m/s 19.2 mm
15:00 7.9° 1012.8 hPa 3.6 m/s 19.2 mm 8.0° 1012.6 hPa 3.4 m/s 7.3° 1014.9 hPa 6.1 m/s 19.2 mm
18:00 6.9° 1013.4 hPa 3.6 m/s 19.3 mm 7.0° 1013.2 hPa 3.3 m/s 6.5° 1015.2 hPa 6.5 m/s 19.3 mm
21:00 5.7° 1014.0 hPa 3.4 m/s 19.4 mm 5.9° 1013.8 hPa 3.2 m/s 4.1° 1016.8 hPa 6.0 m/s 19.4 mm
 06:49     19:17    Daglengte: 12:28 Vrijdag 20 Sep
00:00 4.6° 1014.5 hPa 3.4 m/s 19.4 mm 4.8° 1014.2 hPa 3.3 m/s 3.4° 1017.5 hPa 4.7 m/s 19.4 mm
03:00 3.4° 1015.0 hPa 3.5 m/s 19.4 mm 3.6° 1014.7 hPa 3.4 m/s 1.8° 1017.9 hPa 4.5 m/s 19.4 mm
06:00 4.0° 1014.9 hPa 3.3 m/s 19.4 mm 4.2° 1014.7 hPa 3.2 m/s 2.0° 1018.1 hPa 4.8 m/s 19.4 mm
09:00 4.6° 1014.9 hPa 3.1 m/s 19.4 mm 4.7° 1014.6 hPa 3.0 m/s 3.4° 1018.5 hPa 4.7 m/s 19.4 mm
12:00 6.2° 1015.3 hPa 3.2 m/s 19.4 mm 6.2° 1015.0 hPa 3.0 m/s 6.6° 1018.8 hPa 4.9 m/s 19.4 mm
15:00 7.6° 1015.5 hPa 3.1 m/s 19.4 mm 7.6° 1015.3 hPa 3.0 m/s 7.8° 1018.2 hPa 4.4 m/s 19.4 mm
18:00 6.3° 1016.4 hPa 3.5 m/s 19.4 mm 6.2° 1016.3 hPa 3.5 m/s 6.8° 1017.8 hPa 3.9 m/s 19.4 mm
21:00 4.9° 1017.3 hPa 3.8 m/s 19.4 mm 4.9° 1017.3 hPa 3.9 m/s 5.0° 1017.9 hPa 2.2 m/s 19.4 mm
 06:52     19:14    Daglengte: 12:22 Zaterdag 21 Sep
00:00 4.3° 1018.4 hPa 3.5 m/s 19.4 mm 4.2° 1018.6 hPa 3.5 m/s 4.9° 1015.5 hPa 3.9 m/s 19.4 mm
03:00 3.6° 1019.3 hPa 3.4 m/s 19.6 mm 3.5° 1020.0 hPa 3.1 m/s 4.8° 1011.9 hPa 6.1 m/s 19.6 mm
06:00 4.2° 1019.8 hPa 3.1 m/s 22.6 mm 4.1° 1020.9 hPa 2.8 m/s 5.8° 1008.0 hPa 6.1 m/s 22.6 mm
09:00 4.9° 1020.5 hPa 2.6 m/s 25.8 mm 4.7° 1021.8 hPa 2.5 m/s 7.4° 1005.9 hPa 4.0 m/s 25.8 mm
12:00 6.9° 1020.6 hPa 2.9 m/s 27.3 mm 6.6° 1021.9 hPa 2.7 m/s 10.5° 1006.0 hPa 4.6 m/s 27.3 mm
15:00 8.8° 1020.6 hPa 3.0 m/s 27.4 mm 8.4° 1022.0 hPa 2.9 m/s 12.7° 1005.8 hPa 4.2 m/s 27.4 mm
18:00 8.2° 1020.4 hPa 3.1 m/s 27.4 mm 7.8° 1021.8 hPa 2.8 m/s 12.5° 1005.4 hPa 5.3 m/s 27.4 mm
21:00 7.7° 1020.3 hPa 3.2 m/s 27.5 mm 7.2° 1021.6 hPa 2.8 m/s 12.8° 1005.9 hPa 7.4 m/s 27.5 mm
 06:55     19:10    Daglengte: 12:15 Zondag 22 Sep
00:00 7.3° 1019.7 hPa 4.0 m/s 27.5 mm 6.8° 1020.9 hPa 3.6 m/s 11.9° 1006.9 hPa 8.3 m/s 27.5 mm
03:00 6.9° 1019.1 hPa 4.8 m/s 27.5 mm 6.5° 1020.1 hPa 4.5 m/s 10.9° 1007.6 hPa 8.2 m/s 27.5 mm
06:00 7.5° 1017.5 hPa 5.0 m/s 27.5 mm 7.2° 1018.3 hPa 4.8 m/s 10.2° 1008.1 hPa 7.6 m/s 27.5 mm
09:00 8.3° 1015.8 hPa 5.3 m/s 27.5 mm 8.0° 1016.5 hPa 5.1 m/s 11.3° 1008.1 hPa 7.3 m/s 27.5 mm
12:00 10.3° 1012.9 hPa 5.5 m/s 27.5 mm 9.9° 1013.4 hPa 5.3 m/s 13.7° 1008.0 hPa 6.6 m/s 27.5 mm
15:00 12.2° 1010.0 hPa 5.7 m/s 27.5 mm 11.9° 1010.3 hPa 5.6 m/s 15.4° 1006.6 hPa 7.1 m/s 27.5 mm
18:00 12.6° 1007.2 hPa 5.7 m/s 27.5 mm 12.4° 1007.3 hPa 5.7 m/s 14.7° 1005.7 hPa 5.1 m/s 27.5 mm
21:00 12.9° 1004.5 hPa 5.7 m/s 27.5 mm 13.0° 1004.4 hPa 5.8 m/s 11.4° 1005.8 hPa 4.5 m/s 27.5 mm
 06:57     19:07    Daglengte: 12:10 Maandag 23 Sep
03:00 12.0° 1003.1 hPa 5.3 m/s 27.5 mm 12.2° 1002.9 hPa 5.3 m/s 9.8° 1005.5 hPa 5.6 m/s 27.5 mm
09:00 11.2° 1003.5 hPa 5.1 m/s 27.5 mm 11.4° 1003.2 hPa 5.2 m/s 9.0° 1006.8 hPa 4.5 m/s 27.5 mm
15:00 14.1° 1003.5 hPa 6.3 m/s 27.6 mm 14.4° 1003.0 hPa 6.5 m/s 10.7° 1009.6 hPa 4.1 m/s 27.6 mm
21:00 11.6° 1004.9 hPa 5.4 m/s 27.6 mm 12.1° 1004.1 hPa 5.5 m/s 6.5° 1013.1 hPa 4.0 m/s 27.6 mm
 07:00     19:04    Daglengte: 12:04 Dinsdag 24 Sep
03:00 9.3° 1006.8 hPa 4.7 m/s 27.6 mm 9.7° 1006.0 hPa 4.8 m/s 5.0° 1015.6 hPa 3.0 m/s 27.6 mm
09:00 8.8° 1008.6 hPa 4.2 m/s 27.6 mm 9.1° 1007.8 hPa 4.4 m/s 5.0° 1017.3 hPa 2.4 m/s 27.6 mm
15:00 11.9° 1011.3 hPa 4.9 m/s 27.6 mm 12.3° 1010.7 hPa 5.2 m/s 8.1° 1018.2 hPa 1.1 m/s 27.6 mm
21:00 8.9° 1013.6 hPa 3.0 m/s 27.6 mm 9.1° 1013.1 hPa 3.1 m/s 7.0° 1019.4 hPa 1.9 m/s 27.6 mm
 07:03     19:00    Daglengte: 11:57 Woensdag 25 Sep
03:00 6.8° 1015.2 hPa 1.5 m/s 27.6 mm 6.8° 1014.8 hPa 1.3 m/s 6.7° 1019.6 hPa 3.7 m/s 27.6 mm
09:00 7.4° 1018.8 hPa 3.6 m/s 27.7 mm 7.4° 1018.8 hPa 3.6 m/s 27.7 mm
15:00 12.9° 1017.8 hPa 3.5 m/s 27.7 mm 12.9° 1017.8 hPa 3.5 m/s 27.7 mm
21:00 7.8° 1013.5 hPa 1.5 m/s 0.9 mm
 07:05     18:57    Daglengte: 11:52 Donderdag 26 Sep
03:00 7.0° 1013.0 hPa 1.3 m/s 0.5 mm
09:00 7.8° 1012.3 hPa 1.1 m/s 1.8 mm
15:00 10.6° 1011.8 hPa 1.7 m/s 0.9 mm
21:00 7.7° 1011.9 hPa 1.4 m/s 1.5 mm
 07:08     18:54    Daglengte: 11:46 Vrijdag 27 Sep
03:00 6.6° 1011.7 hPa 1.3 m/s 1.4 mm
09:00 7.1° 1011.3 hPa 1.3 m/s 0.0 mm
15:00 10.3° 1010.7 hPa 1.5 m/s 0.8 mm
21:00 7.9° 1009.8 hPa 1.6 m/s 1.5 mm
 07:11     18:50    Daglengte: 11:39 Zaterdag 28 Sep
03:00 7.3° 1009.6 hPa 1.2 m/s 1.1 mm
09:00 7.8° 1009.2 hPa 1.1 m/s 0.9 mm
15:00 10.4° 1009.7 hPa 1.4 m/s 0.7 mm
21:00 8.0° 1011.0 hPa 1.0 m/s 0.4 mm
 07:14     18:47    Daglengte: 11:33 Zondag 29 Sep
03:00 6.8° 1012.2 hPa 1.1 m/s 0.3 mm
09:00 6.8° 1012.5 hPa 0.9 m/s 0.7 mm
15:00 9.8° 1013.1 hPa 1.3 m/s 0.7 mm
21:00 7.0° 1013.4 hPa 1.1 m/s 0.7 mm
 07:16     18:43    Daglengte: 11:27 Maandag 30 Sep
03:00 5.6° 1014.0 hPa 1.2 m/s 0.2 mm
09:00 6.1° 1013.9 hPa 1.4 m/s 0.2 mm
15:00 9.7° 1013.5 hPa 1.5 m/s 0.3 mm
21:00 6.9° 1013.0 hPa 1.1 m/s 0.8 mm
FMI Hirlam - 7.5 km EWN WRFDA - 12 km DWD ICON - 7 km GFS - 25 km Basiskaart






























































Updatetijd (Europe/Amsterdam) Resolutie Lengte Stap
FMI Hirlam 19:00, 01:00, 07:00, 13:00 7.5 km 49h 1h
EWN WRFDA 15:45, 21:45, 03:45, 09:45 12 km 73h 1h
DWD ICON 17:45, 23:45, 05:45, 11:45 7 km 75h 1h
GFS 20:30, 02:30, 08:30, 14:30 25 km 237h 3h
30+ mm
25-30 mm
20-25 mm
15-20 mm
10-15 mm
6-10 mm
4-6 mm
2-4 mm
1-2 mm
0.5-1 mm
0.2-0.5 mm
0.1-0.2 mm
30+ mm
25-30 mm
20-25 mm
15-20 mm
10-15 mm
6-10 mm
4-6 mm
2-4 mm
1-2 mm
0.5-1 mm
0.2-0.5 mm
0.1-0.2 mm
Sneeuwval
Natte sneeuw
Hagel
Vorst
30+ mm
25-30 mm
20-25 mm
15-20 mm
10-15 mm
6-10 mm
4-6 mm
2-4 mm
1-2 mm
0.5-1 mm
0.2-0.5 mm
0.1-0.2 mm
Sneeuwval
Natte sneeuw
Hagel
Vorst
Onweer
50 mm
40 mm
30 mm
26 mm
22 mm
18 mm
14 mm
10 mm
9 mm
8 mm
7 mm
6 mm
5 mm
4.5 mm
4 mm
3.5 mm
3 mm
2.5 mm
2 mm
1.5 mm
1 mm
0.8 mm
0.6 mm
0.4 mm
0.2 mm
0.05 mm
35°
30°
25°
20°
15°
10°
-5°
-10°
-15°
-20°
-25°
-30°
-35°
33> m/s
29 m/s
25 m/s
21 m/s
17 m/s
14 m/s
11 m/s
8 m/s
5 m/s
3 m/s
0 m/s
2600 J/kg
2400 J/kg
2200 J/kg
2000 J/kg
1800 J/kg
1600 J/kg
1400 J/kg
1200 J/kg
1000 J/kg
800 J/kg
600 J/kg
400 J/kg
200 J/kg
70 dBZ
65 dBZ
60 dBZ
55 dBZ
50 dBZ
45 dBZ
40 dBZ
35 dBZ
30 dBZ
25 dBZ
20 dBZ
15 dBZ
10 dBZ
5 dBZ
-1 K
-2 K
-3 K
-4 K
-5 K
-6 K
-7 K
-8 K
-9 K
950 m²/s²
900 m²/s²
850 m²/s²
800 m²/s²
750 m²/s²
700 m²/s²
650 m²/s²
600 m²/s²
550 m²/s²
500 m²/s²
450 m²/s²
400 m²/s²
350 m²/s²
300 m²/s²
250 m²/s²
200 m²/s²
150 m²/s²
100 m²/s²
46 m/s
44 m/s
42 m/s
40 m/s
38 m/s
36 m/s
34 m/s
32 m/s
30 m/s
28 m/s
26 m/s
24 m/s
22 m/s
20 m/s
16 m/s
12 m/s
8 m/s
4 m/s
30 m/s
28 m/s
26 m/s
24 m/s
22 m/s
20 m/s
18 m/s
16 m/s
14 m/s
12 m/s
10 m/s
8 m/s
6 m/s
4 m/s
2 m/s
3.0
2.8
2.6
2.4
2.2
2.0
1.8
1.6
1.4
1.2
1.0
0.8
0.6
0.4
0.2
15
14
13
12
11
10
9
8
7
6
5
4
3
2
1
90%
80%
70%
60%
50%
40%
30%
20%
10%
42
40
38
36
34
32
30
28
26
24
22
20
18
16
14
12
90+ cm
80-90 cm
70-80 cm
60-70 cm
50-60 cm
40-50 cm
30-40 cm
20-30 cm
10-20 cm
1-10 cm
Sneeuwval
Natte sneeuw
Regen